Regional Weather Roundup
Issued by NWS

Home | Current Version | Previous Version | Graphics & Text | Print | Product List | Glossary On
Versions: 1 2 3 4 5 6 7 8 9 10 11 12 13 14 15 16 17 18 19 20 21 22 23 24 25 26 27
000
ASUS45 KTFX 112010
RWRMT
MONTANA REGIONAL WEATHER ROUNDUP
NATIONAL WEATHER SERVICE GREAT FALLS MT
100 PM MST MON DEC 11 2017

NOTE: "FAIR" INDICATES FEW OR NO CLOUDS BELOW 12000 FEET WITH NO
SIGNIFICANT WEATHER AND/OR OBSTRUCTIONS TO VISIBILITY.

MTZ001>007-043-112100-
WEST OF THE DIVIDE

CITY           SKY/WX    TMP DP  RH WIND       PRES   REMARKS
KALISPELL      CLOUDY    24  21  88 W3        30.63F
MISSOULA       CLOUDY    19  17  92 CALM      30.61F FOG
BUTTE          FAIR      32  13  45 S3        30.50F
MULLAN PASS    FAIR      44   4  19 S5        30.48F
ANACONDA         N/A     32  18  55 CALM      30.51F
DEER LODGE       N/A     28  18  64 CALM      30.54F
EUREKA           N/A     23  18  80 MISG      30.67F
HAMILTON         N/A     21  19  93 CALM      30.58F
LIBBY            N/A     27  21  80 CALM      30.63F
RONAN            N/A     26  23  88 CALM      30.59F
$$

MTZ008-052>055-112100-
SOUTHWEST MONTANA

CITY           SKY/WX    TMP DP  RH WIND       PRES   REMARKS
BOZEMAN        FAIR      29  19  66 SE3       30.51F
DILLON         FAIR      33  14  45 SW6       30.50F WCI  28
W YELLOWSTONE  FAIR      23  12  63 CALM      30.56F
ENNIS          CLOUDY    39  19  45 S8        30.54F
THREE FORKS      N/A     28  17  63 CALM      30.44F
TWIN BRIDGES     N/A     39  10  30 CALM      30.43F
$$

MTZ009-010-012-014-046-048-049-054-112100-
EAST SLOPES AND CENTRAL MONTANA

CITY           SKY/WX    TMP DP  RH WIND       PRES   REMARKS
CUT BANK       FAIR      41  21  44 CALM      30.37S
GREAT FALLS    FAIR      51  14  22 SW14      30.39F
MALMSTROM AFB  FAIR      50  18  27 W3        30.39F
HELENA         FAIR      28  21  75 NW3       30.51F
CHOTEAU          N/A     54  23  30 SE7       30.39S
FAIRFIELD      FAIR      51  19  27 S8        30.37F
POWER          FAIR      49  17  28 SW7       30.38F
RAYNESFORD     FAIR      52  22  31 CALM      30.39F
ULM            FAIR      50  18  28 SW7       30.39F
$$

MTZ011-013-016-021-045-047-050-051-112100-
NORTH CENTRAL MONTANA

CITY           SKY/WX    TMP DP  RH WIND       PRES   REMARKS
HAVRE          FAIR      40  21  46 SW7       30.40F
LEWISTOWN      FAIR      45  22  40 SE3       30.40F
N BAR RANCH    FAIR      50  14  23 NW12      30.42F
CHINOOK          N/A     45  19  36 NW5       30.40F
DENTON         FAIR      44  21  41 MISG      30.37F
GEYSER         FAIR      45  20  37 CALM      30.38F
GRASS RANGE    FAIR      50  19  29 E7        30.36F
STANFORD       FAIR      48  17  29 NE3       30.39F
WINIFRED       FAIR      46  15  29 W5        30.39F
$$

MTZ017>020-022>027-061-062-112100-
NORTHEAST MONTANA

CITY           SKY/WX    TMP DP  RH WIND       PRES   REMARKS
GLASGOW        CLOUDY    40  27  59 W12       30.40F
GLENDIVE       CLOUDY    40  26  57 NW17      30.38R
JORDAN           N/A     44  25  47 NW13      30.41F
SIDNEY         PTSUNNY   40  30  67 NW16      30.35S
WOLF POINT     FAIR      43  27  53 N16       30.39F
MALTA          SUNNY     45  23  42 W7        30.41F
PLENTYWOOD       N/A     36  30  80 NW15      30.33F WCI  26
POPLAR           N/A     41  27  56 NW14      30.38R
$$

MTZ028>42-056>058-112100-
SOUTHCENTRAL AND SOUTHEAST MONTANA

CITY           SKY/WX    TMP DP  RH WIND       PRES   REMARKS
BAKER          CLOUDY    37  28  70 NW16G24   30.36R WCI  28
BILLINGS       PTSUNNY   45  16  31 SW5       30.42F
LIVINGSTON     FAIR      47  16  29 W16       30.44F
MILES CITY     CLOUDY    41  26  55 N14       30.41F
BIG TIMBER     SUNNY     52  10  19 SW17      30.43F
FORSYTH          N/A     45  19  36 N9        30.42S
LAUREL           N/A     46  19  34 CALM      30.43S
ROUNDUP          N/A     47  14  26 E3        30.29F
$$

REGIONAL REPORTS...DAKOTAS

CITY           SKY/WX    TMP DP  RH WIND       PRES   REMARKS
WILLISTON      CLOUDY    38  27  64 N15       30.35S WCI  29
MINOT          FAIR      31  20  63 N10       30.29S WCI  22
DICKINSON      CLOUDY    35  30  82 NW23      30.29R WCI  23
BEACH          CLOUDY    36  27  69 NW15G21   30.37R WCI  26
CROSBY         CLOUDY    34  28  80 N12       30.33R WCI  25
TIOGA          PTSUNNY   34  30  86 NW14      30.32R WCI  24
BISMARCK       PTSUNNY   37  24  59 N16       30.28R WCI  28
GRAND FORKS    PTSUNNY   16  10  77 N28       30.24R WCI  -4
FARGO          PTSUNNY   20  14  77 N26G36    30.20R WCI   2
BUFFALO SD       N/A     39  27  62 NW36G41   30.25R WCI  26
RAPID CITY     FAIR      44  22  41 NW36G48   30.30R
$$

REGIONAL REPORTS...WYOMING/IDAHO/WASHINGTON

CITY           SKY/WX    TMP DP  RH WIND       PRES   REMARKS
GILLETTE       FAIR      48  15  26 NW23      30.37F
SHERIDAN       FAIR      49  18  29 NW14      30.41F
BUFFALO WY     FAIR      47  12  24 N21G33    30.39F
CODY           FAIR      49  10  20 N8        30.44F
YELLOWSTONE LA   N/A     28  20  71 CALM      30.56F
IDAHO FALLS    FAIR      27  22  81 VRB6      30.58F WCI  20
SALMON         CLOUDY    18  13  80 CALM      30.73F
BOISE          CLOUDY    25  20  81 S3        30.67F
SPOKANE        CLOUDY    27  24  89 NE5       30.58F
$$

REGIONAL REPORTS...ALBERTA

CITY           SKY/WX    TMP DP  RH WIND       PRES   REMARKS
EDMONTON       PTSUNNY   39  23  52 SW9       30.24F
CALGARY        MOSUNNY   46  18  31 SW5       30.32F
LETHBRIDGE     MOSUNNY   43  25  49 CALM      30.34F
MEDICINE HAT   PTSUNNY   39  23  52 SW7       30.38F
$$

REGIONAL REPORTS...SASKATCHEWAN

CITY           SKY/WX    TMP DP  RH WIND       PRES   REMARKS
SWIFT CURRENT  SUNNY     36  25  64 W15       30.33S WCI  26
REGINA         CLOUDY    34  30  86 NW7       30.31S WCI  28
SASKATOON      MOSUNNY   36  28  75 W12       30.29F WCI  27
$$




USA.gov is the U.S. government's official web portal to all federal, state and local government web resources and services.